Yankton, SD

8:15 PM CDT on May 25, 2017 (GMT -0500)
Gurney Municipal

Weather History for KYKN - May, 2013

Change the Weather History Date:

Wednesday, May 1, 2013

  Actual Average Record
Temperature  
Mean Temperature 40 °F -  
Max Temperature 48 °F 65 °F 96 °F (1992)
Min Temperature 33 °F 39 °F 25 °F (1950)
Degree Days  
Heating Degree Days 24    
Moisture  
Dew Point 32 °F    
Average Humidity 74    
Maximum Humidity 93    
Minimum Humidity 53    
Precipitation  
Precipitation 0.35 in - - ()
Sea Level Pressure  
Sea Level Pressure 30.32 in    
Wind  
Wind Speed 14 mph (NNW)    
Max Wind Speed 20 mph    
Max Gust Speed 26 mph    
Visibility 8 miles    
Events      
Averages and records for this station are not official NWS values.
T = Trace of Precipitation, MM = Missing Value Source: NWS Daily Summary

Daily Weather History Graph

Daily Weather History Graph

Search for Another Location

Airport or City:

Trip Planner

Search our weather history database for the weather conditions in past years. The results will help you decide how hot, cold, wet, or windy it might be!

Date:

Astronomy

May. 01, 2013 Rise Set
Actual Time 6:23 AM CDT 8:30 PM CDT
Civil Twilight 5:52 AM CDT 9:01 PM CDT
Nautical Twilight 5:14 AM CDT 9:40 PM CDT
Astronomical Twilight 4:32 AM CDT 10:22 PM CDT
Moon 1:41 AM CDT (5/1) 12:03 PM CDT (5/1)
Length of Visible Light 15h 09m
Length of Day
14h 07m
Waning Gibbous, 59% of the Moon is Illuminated
May 1
Waning Gibbous
May 2
Last Quarter
May 9
New
May 17
First Quarter
May 24
Full

Hourly Weather History & Observations

Time (CDT) Temp. Windchill Dew Point Humidity Pressure Visibility Wind Dir Wind Speed Gust Speed Precip Events Conditions
12:15 AM 48.2 °F - 37.4 °F 66% 30.04 in 10.0 mi NNW 19.6 mph 24.2 mph N/A   Overcast
12:35 AM 46.4 °F 39.5 °F 39.2 °F 76% 30.05 in 10.0 mi NNW 17.3 mph - N/A   Overcast
12:55 AM 46.4 °F 40.4 °F 39.2 °F 76% 30.09 in 10.0 mi NNW 13.8 mph - N/A   Overcast
1:15 AM 46.4 °F 41.5 °F 39.2 °F 76% 30.10 in 10.0 mi North 10.4 mph - N/A   Overcast
1:35 AM 44.6 °F 38.8 °F 41.0 °F 87% 30.09 in 10.0 mi North 11.5 mph - 0.02 in   Overcast
1:55 AM 44.6 °F 39.7 °F 39.2 °F 81% 30.11 in 10.0 mi NNW 9.2 mph - 0.02 in   Overcast
2:15 AM 44.6 °F 39.7 °F 42.8 °F 93% 30.09 in 10.0 mi North 9.2 mph - N/A   Overcast
2:35 AM 44.6 °F 39.2 °F 39.2 °F 81% 30.11 in 10.0 mi North 10.4 mph - 0.01 in   Overcast
3:15 AM 44.6 °F 37.8 °F 37.4 °F 76% 30.12 in 10.0 mi North 15.0 mph 18.4 mph N/A   Overcast
3:35 AM 42.8 °F 34.3 °F 37.4 °F 81% 30.13 in 7.0 mi North 19.6 mph 25.3 mph 0.03 in   Overcast
3:55 AM 42.8 °F 35.1 °F 35.6 °F 76% 30.14 in 8.0 mi North 16.1 mph 23.0 mph 0.06 in   Overcast
4:15 AM 39.2 °F 30.2 °F 35.6 °F 87% 30.16 in 5.0 mi North 17.3 mph 21.9 mph 0.06 in   Overcast
4:35 AM 39.2 °F 32.0 °F 35.6 °F 87% 30.15 in 9.0 mi North 11.5 mph - 0.08 in   Overcast
4:55 AM 37.4 °F 28.5 °F 33.8 °F 87% 30.19 in 6.0 mi NNW 15.0 mph - 0.12 in   Overcast
5:15 AM 37.4 °F 28.9 °F 33.8 °F 87% 30.22 in 8.0 mi North 13.8 mph 17.3 mph 0.04 in   Overcast
5:35 AM 35.6 °F 26.6 °F 32.0 °F 87% 30.23 in 5.0 mi North 13.8 mph - 0.08 in   Overcast
5:55 AM 33.8 °F 24.8 °F 30.2 °F 87% 30.25 in 3.0 mi NNW 12.7 mph - 0.08 in   Overcast
6:15 AM 33.8 °F 25.3 °F 32.0 °F 93% 30.25 in 2.5 mi North 11.5 mph - N/A   Overcast
6:35 AM 33.8 °F 25.3 °F 30.2 °F 87% 30.27 in 2.5 mi NNW 11.5 mph - N/A   Overcast
6:55 AM 33.8 °F 25.8 °F 32.0 °F 93% 30.26 in 1.5 mi North 10.4 mph - N/A   Overcast
7:15 AM 33.8 °F 25.8 °F 30.2 °F 87% 30.26 in 2.0 mi North 10.4 mph - N/A   Overcast
7:35 AM 33.8 °F 26.4 °F 32.0 °F 93% 30.28 in 4.0 mi North 9.2 mph - N/A   Overcast
8:15 AM 33.8 °F 27.0 °F 32.0 °F 93% 30.29 in 2.5 mi North 8.1 mph - N/A   Overcast
8:35 AM 33.8 °F 25.8 °F 30.2 °F 87% 30.31 in 3.0 mi NNW 10.4 mph - N/A   Overcast
8:55 AM 33.8 °F 25.3 °F 30.2 °F 87% 30.32 in 2.5 mi NNW 11.5 mph - N/A   Overcast
9:15 AM 33.8 °F 26.4 °F 30.2 °F 87% 30.32 in 1.0 mi North 9.2 mph - N/A   Overcast
9:35 AM 33.8 °F 25.3 °F 30.2 °F 87% 30.32 in 1.5 mi North 11.5 mph - 0.01 in   Overcast
9:55 AM 33.8 °F 27.0 °F 30.2 °F 87% 30.31 in 10.0 mi North 8.1 mph - 0.02 in   Mostly Cloudy
10:15 AM 33.8 °F 27.7 °F 32.0 °F 93% 30.32 in 10.0 mi NW 6.9 mph - N/A   Scattered Clouds
10:35 AM 35.6 °F 27.5 °F 30.2 °F 81% 30.33 in 10.0 mi NW 11.5 mph - N/A   Mostly Cloudy
11:15 AM 35.6 °F 25.9 °F 30.2 °F 81% 30.34 in 10.0 mi NNW 16.1 mph - 0.01 in   Overcast
11:35 AM 35.6 °F 26.2 °F 30.2 °F 81% 30.35 in 10.0 mi NNW 15.0 mph - 0.01 in   Overcast
11:55 AM 37.4 °F 28.2 °F 30.2 °F 75% 30.36 in 10.0 mi NNW 16.1 mph - 0.02 in   Overcast
12:15 PM 37.4 °F 28.5 °F 30.2 °F 75% 30.36 in 10.0 mi NNW 15.0 mph - N/A   Mostly Cloudy
12:35 PM 37.4 °F 29.8 °F 30.2 °F 75% 30.36 in 10.0 mi North 11.5 mph 20.7 mph N/A   Scattered Clouds
12:55 PM 37.4 °F 28.5 °F 30.2 °F 75% 30.36 in 10.0 mi North 15.0 mph 23.0 mph 0.01 in   Mostly Cloudy
1:15 PM 39.2 °F 30.8 °F 30.2 °F 70% 30.36 in 10.0 mi North 15.0 mph - 0.01 in   Mostly Cloudy
1:35 PM 39.2 °F 30.2 °F 30.2 °F 70% 30.36 in 10.0 mi North 17.3 mph 21.9 mph 0.01 in   Mostly Cloudy
1:55 PM 39.2 °F 29.8 °F 30.2 °F 70% 30.37 in 10.0 mi North 18.4 mph 23.0 mph 0.01 in   Scattered Clouds
2:15 PM 41.0 °F 31.9 °F 30.2 °F 65% 30.38 in 10.0 mi NNW 19.6 mph 25.3 mph N/A   Mostly Cloudy
2:35 PM 41.0 °F 32.2 °F 30.2 °F 65% 30.38 in 10.0 mi NNW 18.4 mph 26.5 mph N/A   Mostly Cloudy
2:55 PM 41.0 °F 32.5 °F 28.4 °F 61% 30.39 in 10.0 mi NNW 17.3 mph 25.3 mph N/A   Scattered Clouds
3:15 PM 41.0 °F 32.5 °F 28.4 °F 61% 30.39 in 10.0 mi North 17.3 mph 24.2 mph N/A   Scattered Clouds
3:35 PM 41.0 °F 31.9 °F 28.4 °F 61% 30.40 in 10.0 mi North 19.6 mph 25.3 mph N/A   Scattered Clouds
3:55 PM 41.0 °F 32.8 °F 28.4 °F 61% 30.40 in 10.0 mi NNW 16.1 mph 21.9 mph N/A   Overcast
4:15 PM 42.8 °F 34.5 °F 28.4 °F 57% 30.41 in 10.0 mi North 18.4 mph 21.9 mph N/A   Mostly Cloudy
4:35 PM 42.8 °F 35.1 °F 28.4 °F 57% 30.41 in 10.0 mi NNW 16.1 mph - N/A   Scattered Clouds
5:15 PM 42.8 °F 34.5 °F 28.4 °F 57% 30.42 in 10.0 mi North 18.4 mph 24.2 mph N/A   Partly Cloudy
5:35 PM 42.8 °F 34.8 °F 28.4 °F 57% 30.42 in 10.0 mi North 17.3 mph 25.3 mph N/A   Partly Cloudy
5:55 PM 42.8 °F 35.1 °F 28.4 °F 57% 30.43 in 10.0 mi NNW 16.1 mph - N/A   Partly Cloudy
6:15 PM 42.8 °F 35.1 °F 30.2 °F 61% 30.44 in 10.0 mi NNW 16.1 mph - N/A   Partly Cloudy
6:35 PM 42.8 °F 34.8 °F 30.2 °F 61% 30.44 in 10.0 mi NNW 17.3 mph - N/A   Clear
6:55 PM 42.8 °F 35.8 °F 28.4 °F 57% 30.44 in 10.0 mi North 13.8 mph - N/A   Scattered Clouds
7:15 PM 42.8 °F 35.1 °F 28.4 °F 57% 30.45 in 10.0 mi North 16.1 mph 19.6 mph N/A   Partly Cloudy
7:35 PM 42.8 °F 34.5 °F 26.6 °F 53% 30.45 in 10.0 mi North 18.4 mph 23.0 mph N/A   Clear
7:55 PM 42.8 °F 35.4 °F 26.6 °F 53% 30.46 in 10.0 mi North 15.0 mph - N/A   Clear
8:35 PM 42.8 °F 35.8 °F 26.6 °F 53% 30.46 in 10.0 mi North 13.8 mph - N/A   Clear
8:55 PM 41.0 °F 34.3 °F 28.4 °F 61% 30.45 in 10.0 mi North 11.5 mph - N/A   Clear
9:35 PM 39.2 °F 33.6 °F 30.2 °F 70% 30.48 in 10.0 mi North 8.1 mph - N/A   Clear
9:55 PM 39.2 °F 33.0 °F 30.2 °F 70% 30.49 in 10.0 mi NNE 9.2 mph - N/A   Scattered Clouds
10:15 PM 39.2 °F 33.6 °F 30.2 °F 70% 30.49 in 10.0 mi North 8.1 mph - N/A   Mostly Cloudy
10:35 PM 39.2 °F 33.0 °F 30.2 °F 70% 30.49 in 10.0 mi North 9.2 mph - N/A   Partly Cloudy
10:55 PM 39.2 °F 33.0 °F 30.2 °F 70% 30.49 in 10.0 mi North 9.2 mph - N/A   Clear
11:15 PM 39.2 °F 32.5 °F 28.4 °F 65% 30.51 in 10.0 mi North 10.4 mph - N/A   Mostly Cloudy
11:35 PM 39.2 °F 32.5 °F 28.4 °F 65% 30.51 in 10.0 mi North 10.4 mph 16.1 mph N/A   Mostly Cloudy
11:55 PM 39.2 °F 32.5 °F 28.4 °F 65% 30.51 in 10.0 mi North 10.4 mph - N/A   Mostly Cloudy